Total_Precipitation_Accumulation
0.33 0.40 0.38 0.27 0.19 0.17 0.22 0.28 0.33 0.29 0.26 0.30 0.43 0.48 0.40 0.41 0.45 0.44 0.54 0.53 0.46 0.41 0.35 0.36 0.38 0.40 0.45 0.52 0.58 0.60 0.62 0.66 0.77 0.91 1.08 1.28 1.46 1.63
0.40 0.42 0.43 0.39 0.35 0.27 0.25 0.28 0.33 0.35 0.32 0.28 0.42 0.50 0.53 0.44 0.48 0.51 0.53 0.51 0.44 0.40 0.35 0.32 0.33 0.35 0.35 0.37 0.41 0.47 0.48 0.47 0.50 0.57 0.64 0.72 0.79 0.94
0.66 0.58 0.53 0.52 0.50 0.43 0.39 0.36 0.36 0.39 0.44 0.44 0.52 0.64 0.68 0.59 0.60 0.56 0.51 0.53 0.45 0.43 0.39 0.36 0.32 0.31 0.34 0.34 0.34 0.35 0.39 0.40 0.39 0.39 0.42 0.47 0.48 0.52
0.87 0.88 0.76 0.67 0.63 0.54 0.49 0.46 0.45 0.49 0.53 0.62 0.67 0.74 0.76 0.76 0.72 0.57 0.46 0.45 0.48 0.49 0.43 0.40 0.39 0.36 0.33 0.31 0.31 0.29 0.30 0.31 0.33 0.32 0.32 0.34 0.38 0.41
0.70 0.88 0.94 0.89 0.76 0.69 0.62 0.55 0.53 0.51 0.55 0.59 0.67 0.84 0.94 0.94 0.76 0.51 0.42 0.46 0.43 0.53 0.52 0.42 0.38 0.36 0.33 0.30 0.27 0.25 0.24 0.26 0.28 0.30 0.29 0.28 0.28 0.30
0.60 0.66 0.79 0.93 0.89 0.81 0.73 0.68 0.65 0.67 0.68 0.67 0.72 0.88 1.06 1.11 0.90 0.62 0.51 0.49 0.46 0.40 0.43 0.40 0.37 0.34 0.32 0.29 0.26 0.25 0.24 0.25 0.27 0.28 0.29 0.29 0.27 0.24
0.66 0.61 0.60 0.69 0.79 0.82 0.74 0.70 0.72 0.73 0.73 0.72 0.76 0.91 1.07 1.16 0.94 0.70 0.55 0.50 0.46 0.41 0.37 0.32 0.30 0.30 0.31 0.33 0.32 0.28 0.25 0.26 0.28 0.30 0.30 0.28 0.27 0.25
0.83 0.73 0.63 0.57 0.59 0.66 0.72 0.73 0.73 0.71 0.72 0.74 0.76 0.88 1.00 1.04 1.07 0.89 0.68 0.50 0.41 0.39 0.41 0.36 0.34 0.33 0.29 0.26 0.32 0.32 0.29 0.26 0.25 0.26 0.27 0.29 0.28 0.26
0.83 0.79 0.60 0.47 0.52 0.56 0.65 0.66 0.64 0.59 0.58 0.64 0.69 0.78 1.04 1.20 1.31 1.05 0.84 0.72 0.57 0.50 0.47 0.41 0.40 0.37 0.31 0.29 0.36 0.33 0.30 0.28 0.26 0.24 0.24 0.25 0.28 0.29
0.70 0.77 0.71 0.61 0.55 0.57 0.56 0.52 0.51 0.49 0.45 0.44 0.51 0.67 0.92 1.27 1.46 1.43 1.31 1.10 0.93 0.73 0.59 0.47 0.40 0.36 0.34 0.31 0.36 0.36 0.32 0.30 0.29 0.29 0.25 0.24 0.27 0.30
0.59 0.62 0.65 0.60 0.52 0.43 0.44 0.41 0.39 0.39 0.36 0.36 0.40 0.57 0.75 1.01 1.36 1.52 1.44 1.22 0.99 0.74 0.56 0.45 0.38 0.35 0.32 0.29 0.31 0.36 0.34 0.31 0.31 0.31 0.32 0.29 0.27 0.30
0.60 0.64 0.68 0.60 0.47 0.35 0.39 0.43 0.37 0.32 0.34 0.35 0.37 0.43 0.55 0.73 1.04 1.20 1.17 1.10 0.92 0.72 0.49 0.43 0.36 0.39 0.34 0.27 0.23 0.24 0.26 0.30 0.31 0.32 0.32 0.34 0.33 0.26
0.50 0.52 0.61 0.56 0.43 0.31 0.33 0.38 0.33 0.34 0.40 0.41 0.42 0.46 0.57 0.69 0.82 1.04 1.09 0.98 0.85 0.65 0.47 0.46 0.39 0.37 0.35 0.28 0.24 0.21 0.20 0.20 0.24 0.28 0.32 0.35 0.36 0.32
0.54 0.56 0.62 0.60 0.46 0.37 0.32 0.31 0.26 0.24 0.31 0.37 0.38 0.38 0.45 0.56 0.72 0.92 1.09 1.05 0.92 0.80 0.69 0.64 0.57 0.49 0.40 0.30 0.23 0.20 0.21 0.20 0.20 0.22 0.25 0.33 0.34 0.37
0.61 0.76 0.79 0.74 0.62 0.51 0.44 0.41 0.32 0.27 0.31 0.33 0.34 0.32 0.35 0.47 0.71 0.96 1.15 1.26 1.16 0.98 0.87 0.78 0.70 0.64 0.59 0.41 0.27 0.22 0.22 0.23 0.23 0.23 0.24 0.26 0.28 0.32
0.58 0.75 0.86 0.91 0.85 0.73 0.64 0.58 0.44 0.37 0.36 0.36 0.37 0.41 0.48 0.60 0.76 0.85 0.99 1.13 1.17 1.04 0.90 0.83 0.77 0.77 0.69 0.54 0.40 0.28 0.23 0.23 0.24 0.26 0.29 0.29 0.30 0.33
0.49 0.74 0.93 1.06 1.10 1.07 0.95 0.84 0.72 0.60 0.51 0.51 0.53 0.55 0.57 0.64 0.72 0.84 0.97 1.03 1.00 0.86 0.79 0.81 0.82 0.82 0.80 0.73 0.55 0.36 0.29 0.24 0.23 0.30 0.38 0.36 0.33 0.32
0.47 0.72 0.93 1.10 1.17 1.27 1.27 1.18 1.01 0.85 0.76 0.73 0.71 0.70 0.70 0.69 0.73 0.87 1.02 1.07 0.98 0.84 0.75 0.70 0.80 0.88 0.86 0.74 0.60 0.44 0.33 0.29 0.26 0.31 0.39 0.40 0.33 0.30
0.46 0.62 0.72 0.87 1.04 1.22 1.30 1.29 1.13 1.00 1.02 1.00 0.91 0.85 0.86 0.83 0.81 0.88 1.01 1.09 1.08 0.97 0.87 0.80 0.82 0.86 0.80 0.60 0.43 0.40 0.40 0.35 0.37 0.37 0.38 0.39 0.34 0.30
0.39 0.48 0.55 0.66 0.85 1.10 1.26 1.31 1.25 1.14 1.13 1.14 1.11 1.04 1.02 0.96 0.89 0.86 0.96 1.05 1.08 1.05 0.99 0.90 0.77 0.74 0.72 0.63 0.54 0.44 0.41 0.51 0.53 0.48 0.42 0.42 0.42 0.44
0.39 0.44 0.48 0.59 0.74 0.94 1.15 1.30 1.33 1.26 1.20 1.25 1.25 1.15 1.10 1.05 0.94 0.86 0.90 1.01 1.09 1.11 0.99 0.86 0.74 0.79 0.96 1.05 0.87 0.60 0.50 0.51 0.62 0.63 0.62 0.64 0.58 0.56
0.52 0.53 0.57 0.67 0.80 1.02 1.21 1.31 1.34 1.31 1.27 1.30 1.28 1.20 1.14 1.11 1.00 0.96 0.96 1.01 1.03 1.04 1.01 1.00 1.10 1.14 1.13 1.07 0.84 0.64 0.60 0.60 0.66 0.73 0.72 0.69 0.65 0.57
0.58 0.57 0.59 0.65 0.81 1.02 1.17 1.29 1.33 1.34 1.33 1.29 1.26 1.19 1.14 1.12 1.10 1.06 1.01 1.02 1.06 1.10 1.21 1.24 1.23 1.20 1.09 1.02 0.96 0.85 0.77 0.78 0.82 0.79 0.65 0.58 0.54 0.53